Terminal Aerodrome Forecast
Issued by NWS

Home | Current Version | Previous Version | Text Only | Print | Product List | Glossary On
Versions: 1 2 3 4 5 6 7 8 9 10 11 12 13 14 15
000
FTUS42 KGSP 200524
TAFAND
TAF
KAND 200524Z 2006/2106 25006KT P6SM FEW250
     FM201000 25006KT P6SM SCT250
     FM210300 VRB03KT P6SM FEW250=

USA.gov is the U.S. government's official web portal to all federal, state and local government web resources and services.